Wind_Speed
20 20 19 16 14 11 9 17 23 24 25 21 21 18 16 14 12 12 12 13 11 8 7 7 7 7 6 5 6 6 7 7 8 8 8 7 7 7 6 7 8 10 12 14 16 18 20 22 23
21 20 19 17 14 11 12 21 27 27 25 21 19 17 17 15 14 13 12 12 10 7 6 7 7 7 6 5 5 7 8 7 8 9 9 8 8 8 7 8 10 12 13 15 17 19 21 23 25
22 21 20 17 14 14 18 25 28 28 25 22 19 17 18 17 16 15 12 12 11 8 7 8 7 7 6 6 7 8 9 9 9 10 10 10 10 10 10 11 12 12 14 15 17 18 20 22 24
23 22 20 17 15 17 22 26 28 26 25 23 20 18 19 18 17 15 13 13 12 10 8 9 9 8 7 6 8 10 11 11 12 11 11 11 12 12 12 13 14 13 13 14 15 18 20 22 22
23 21 20 16 16 19 24 24 23 22 23 22 21 20 20 19 18 16 14 13 14 12 10 10 10 9 9 8 8 10 12 13 14 13 12 12 12 13 14 15 15 14 13 13 15 18 19 21 21
24 21 19 16 16 19 23 23 22 21 22 21 22 22 21 19 19 17 15 14 14 13 12 11 11 11 11 10 9 9 11 13 14 13 12 12 13 14 16 17 16 14 13 13 14 16 18 19 19
24 21 19 17 18 22 26 25 22 21 23 23 22 21 20 21 20 17 15 14 14 14 13 12 13 13 12 11 9 9 10 11 12 12 12 13 14 15 17 17 16 15 14 14 14 15 16 18 18
24 22 19 19 23 27 29 30 25 23 24 24 24 20 20 21 20 17 14 13 14 14 14 14 14 14 13 12 11 10 10 11 12 13 15 15 16 17 17 18 18 18 17 17 17 16 17 18 19
24 23 21 22 26 28 30 31 26 23 23 23 22 19 19 19 17 15 14 13 14 15 15 15 15 16 15 14 13 13 13 14 15 17 18 20 21 20 20 20 21 21 21 21 21 21 20 21 21
24 24 23 24 26 29 30 29 23 19 21 22 21 19 18 16 15 15 14 14 15 16 16 17 16 17 16 15 15 15 16 17 19 20 22 23 25 25 25 24 24 25 25 25 25 25 26 26 26
24 24 25 25 26 27 29 26 22 20 22 24 21 18 17 16 16 15 13 14 16 17 17 18 18 18 18 17 17 17 19 21 22 24 25 26 27 28 29 30 29 30 30 30 30 30 31 31 31
24 25 25 26 26 27 28 26 23 20 21 23 20 16 16 18 19 16 14 15 18 19 18 19 19 19 19 19 19 20 22 23 25 27 28 29 30 31 33 35 35 35 35 35 35 35 35 35 35
25 25 26 26 25 26 28 26 23 19 20 22 20 17 17 20 21 20 18 18 19 21 21 19 19 20 20 21 22 23 24 26 28 30 32 33 35 36 38 39 39 40 39 38 39 40 40 39 38
26 25 25 25 26 25 27 27 24 21 24 23 22 20 21 23 24 24 23 22 22 22 23 21 19 20 21 23 24 25 27 29 31 33 34 36 38 39 39 40 41 41 41 40 41 42 43 43 43
27 26 25 25 27 26 27 27 27 26 25 23 24 25 25 26 27 28 28 26 25 24 23 21 20 21 22 24 26 28 29 30 32 34 34 35 37 38 39 41 41 42 41 41 42 44 45 47 47
28 26 25 26 27 25 26 26 29 27 26 25 27 28 28 29 29 30 29 28 26 24 22 21 21 23 25 28 29 31 31 31 32 33 34 35 36 37 38 39 40 41 41 42 43 44 46 49 50
28 27 27 28 27 25 25 27 29 27 25 26 27 28 29 29 28 28 28 27 25 22 20 20 23 26 29 31 31 31 30 30 30 31 33 34 35 35 36 37 38 40 41 42 44 46 47 49 51
27 28 29 28 27 26 25 26 28 26 23 22 23 25 26 25 24 24 24 23 21 20 21 23 26 28 30 31 30 29 27 27 27 28 30 31 33 34 35 36 38 41 42 43 45 47 49 50 52
32 31 29 28 27 27 26 26 26 25 23 22 21 22 23 22 21 20 20 20 21 22 25 27 29 29 28 28 27 27 26 26 27 28 29 31 33 35 36 37 39 41 42 43 44 47 48 50 53
34 31 29 27 27 28 28 26 24 23 23 22 20 20 20 19 18 19 19 21 24 27 29 31 30 29 27 26 26 26 27 28 30 31 33 35 37 40 42 43 45 47 48 49 51 52 54 54 56
35 30 28 27 26 28 29 27 24 22 22 20 18 18 18 17 18 20 22 25 28 31 32 32 31 29 28 27 28 28 30 32 34 36 39 42 44 46 49 50 52 53 54 55 56 58 59 60 60
33 29 28 28 27 28 29 27 23 21 22 20 19 19 19 19 21 23 26 29 31 32 32 31 30 30 30 31 32 33 35 37 39 42 44 47 49 51 53 54 55 56 58 59 60 62 63 64 64
30 30 29 28 27 29 29 27 22 21 21 21 21 22 22 23 25 27 28 29 29 29 29 30 30 31 33 34 36 38 39 41 43 45 47 49 51 53 55 57 59 60 62 64 65 67 68 69 70
32 30 29 28 29 29 28 27 22 21 22 23 24 25 25 26 26 25 25 26 27 28 29 30 31 33 35 36 38 40 41 43 45 48 50 52 54 57 59 61 63 64 65 67 68 69 70 71 72
33 31 30 29 30 28 28 28 23 22 23 24 26 27 26 25 24 24 24 25 26 27 29 30 32 34 36 38 40 42 44 47 49 51 53 55 57 59 61 62 64 65 66 67 68 68 69 69 70
31 30 29 29 28 27 28 28 24 23 24 25 26 25 24 23 24 24 24 25 27 28 30 31 34 36 39 41 43 46 48 50 52 53 55 57 59 61 63 65 67 69 70 71 72 73 73 74 74
32 30 29 29 28 25 25 24 21 22 23 23 23 22 22 23 24 24 25 26 28 30 32 35 38 40 42 44 46 48 49 51 53 56 58 61 63 65 67 70 72 74 76 77 78 79 79 80 80
32 29 29 28 26 24 23 20 16 17 18 19 19 19 21 23 24 25 27 29 32 34 36 39 41 43 44 46 48 50 52 55 57 60 62 65 68 71 74 76 78 80 82 83 83 84 84 84 84
30 29 27 24 22 21 18 15 13 16 17 18 19 20 22 23 25 27 30 33 35 37 39 41 42 45 47 50 53 56 58 61 63 66 69 72 75 78 80 82 84 86 87 88 88 88 88 88 86
28 26 23 20 18 16 14 14 16 18 20 21 22 22 23 25 27 30 32 34 36 39 41 44 47 50 54 57 59 62 65 68 71 73 76 79 82 85 88 90 91 91 91 91 91 90 89 88 86
Wind_Direction
225 231 236 239 245 250 234 216 220 229 225 227 234 233 228 233 231 233 245 261 267 272 265 253 247 240 238 238 232 225 220 227 240 246 248 253 268 283 299 314 313 308 310 314 315 313 312 311 309
224 232 237 242 250 257 230 217 220 225 222 226 231 225 224 232 231 238 254 267 272 270 255 244 242 243 242 233 225 219 216 226 243 253 254 260 272 283 293 302 303 305 312 317 319 319 318 316 312
223 229 236 243 254 255 229 222 221 223 222 225 229 220 218 231 230 240 260 276 273 264 248 238 238 245 247 238 229 228 228 234 246 256 262 266 271 280 290 293 295 303 313 321 326 327 326 324 320
224 229 236 243 255 250 231 227 222 220 221 223 224 217 217 229 238 248 267 281 277 269 254 240 235 241 249 251 240 238 243 246 250 257 264 269 272 280 287 290 294 302 313 323 328 328 326 324 322
226 228 235 243 253 246 233 224 215 213 217 218 216 216 222 228 241 254 270 280 278 274 264 249 239 243 252 259 257 251 253 256 258 262 267 271 275 279 284 288 292 299 308 317 324 327 326 325 323
228 230 233 239 244 235 226 213 206 213 216 214 214 216 226 232 244 256 270 278 277 273 267 259 251 252 255 259 268 269 262 259 260 266 272 277 281 283 285 287 289 295 301 309 322 330 331 330 328
229 230 231 232 227 220 218 210 204 212 214 213 217 221 228 236 245 256 268 275 276 271 267 261 254 253 254 256 263 270 265 259 259 265 270 273 278 284 289 291 292 294 296 302 315 326 333 335 336
226 230 228 226 221 219 219 214 208 210 209 212 219 224 229 235 245 256 266 272 274 272 267 261 254 252 252 253 257 262 262 258 259 264 268 270 276 283 290 294 294 293 292 296 303 313 320 325 328
223 227 227 225 224 223 225 222 218 213 215 216 222 227 229 237 247 256 263 269 274 274 269 264 256 251 251 254 259 261 261 261 262 266 269 272 276 281 286 291 293 291 289 291 294 299 303 307 311
222 225 226 227 228 227 229 230 228 225 226 227 230 231 233 240 245 253 263 270 274 275 271 266 260 251 249 252 259 262 263 264 265 268 271 273 276 279 283 286 290 291 288 286 287 290 292 295 300
222 224 227 230 232 230 231 232 230 233 234 233 230 234 239 242 246 255 268 276 276 276 273 268 262 254 251 253 257 262 265 267 268 269 271 273 276 279 282 284 287 288 287 284 283 284 286 289 293
223 223 228 232 235 230 229 229 229 233 233 232 227 229 243 252 255 260 271 281 283 282 278 270 263 256 254 257 260 265 268 270 271 272 273 273 274 277 280 283 286 287 287 285 282 280 281 284 288
224 224 227 232 238 234 228 229 230 232 233 232 230 234 246 258 264 269 275 283 290 290 286 275 261 255 254 257 262 267 271 273 273 273 274 274 274 275 278 281 284 285 284 282 279 277 277 280 283
225 225 227 230 237 237 230 229 231 231 234 233 236 243 252 262 268 273 277 285 291 291 287 277 262 256 256 259 264 271 276 278 278 277 276 275 275 276 277 279 281 282 282 281 278 277 277 278 280
225 225 226 229 234 237 231 228 232 234 239 241 245 250 257 266 272 276 279 284 287 286 281 271 263 262 263 267 272 277 280 280 279 278 277 275 274 274 275 276 278 279 280 281 281 280 280 280 281
225 225 226 229 233 237 232 227 235 239 244 248 251 254 259 266 271 274 277 280 281 279 274 266 265 269 273 277 280 282 281 280 278 277 277 277 276 276 277 278 280 281 282 282 283 283 283 282 282
223 225 226 228 232 234 230 228 238 243 248 254 258 260 262 265 267 268 271 275 276 275 270 268 272 278 282 285 286 286 285 283 281 280 280 281 281 282 283 284 284 284 284 284 284 284 284 283 282
224 226 227 228 230 233 231 232 241 250 254 259 261 262 264 266 265 263 264 267 268 270 273 276 280 284 287 289 290 290 288 285 283 283 284 285 286 287 287 288 288 288 289 288 288 287 286 285 284
222 225 227 228 230 235 236 238 245 255 259 260 260 260 263 265 264 262 261 262 266 272 278 282 284 286 287 287 288 289 289 287 286 286 288 290 292 294 295 296 296 296 296 295 294 292 291 289 287
222 224 228 230 232 235 238 241 248 256 260 259 259 261 262 260 259 260 264 270 276 281 284 285 286 286 286 286 287 288 290 291 292 294 296 297 297 298 299 299 299 299 298 297 295 293 291 289 287
223 225 229 233 235 237 239 242 247 254 259 261 261 261 258 256 260 265 271 276 280 283 285 287 288 289 289 290 290 292 294 296 298 299 300 300 301 301 301 300 299 298 297 295 293 291 289 288 286
225 227 231 235 238 239 240 244 245 253 259 260 259 258 257 260 265 270 273 276 278 280 283 286 288 291 293 294 296 298 299 301 301 301 301 302 301 301 300 299 297 296 294 293 292 290 289 289 288
225 229 233 239 243 243 243 247 246 254 258 256 256 257 260 265 269 272 273 274 276 278 282 286 290 293 296 298 299 300 301 300 300 300 299 299 298 297 296 295 294 293 292 291 290 290 290 290 289
225 229 235 240 244 246 248 250 249 254 253 253 254 257 262 266 268 270 272 274 276 280 285 290 293 296 297 298 298 298 298 297 297 296 295 295 294 294 293 292 292 291 290 289 289 289 289 290 289
224 228 235 241 246 249 250 253 252 251 250 250 253 257 260 263 265 267 272 277 281 286 290 292 294 294 294 295 295 295 295 295 295 295 295 295 296 295 295 295 294 294 293 292 292 291 291 290 290
225 230 237 244 250 252 254 255 252 248 245 247 251 256 259 262 266 272 280 285 288 290 291 292 291 291 292 293 294 294 295 296 297 298 299 299 299 299 298 298 297 296 295 294 293 292 291 290 289
221 229 237 243 246 247 250 251 245 242 241 243 248 254 260 266 275 283 286 286 287 288 289 290 290 290 291 293 294 296 298 299 300 300 301 301 301 300 300 299 299 298 296 295 294 293 291 290 289
219 224 231 236 240 242 245 246 243 243 246 249 254 261 267 276 282 284 284 285 288 289 290 289 290 291 294 295 297 298 299 299 300 300 300 300 300 300 300 299 298 297 296 295 294 292 291 290 289
217 222 227 232 235 237 241 246 246 248 255 260 265 269 275 279 281 282 284 287 289 290 290 292 294 297 298 298 299 299 299 300 300 300 300 299 299 298 297 297 296 295 294 293 292 290 289 288 287
214 217 221 226 229 232 241 254 257 262 267 270 273 276 278 279 280 282 285 289 291 293 295 297 299 300 300 300 299 299 299 299 299 299 299 298 298 297 296 296 294 293 292 291 289 287 286 286 286
Height
5851 5853 5855 5858 5860 5862 5863 5862 5861 5860 5861 5864 5865 5868 5871 5873 5876 5879 5877 5875 5876 5876 5875 5875 5875 5875 5874 5874 5874 5874 5874 5874 5875 5875 5875 5875 5875 5874 5873 5872 5871 5869 5868 5866 5864 5862 5860 5857 5854
5848 5851 5854 5856 5857 5859 5859 5857 5856 5856 5859 5861 5862 5866 5868 5870 5873 5874 5874 5874 5874 5874 5874 5873 5873 5873 5873 5873 5873 5873 5872 5873 5874 5874 5874 5873 5873 5872 5871 5871 5869 5868 5865 5863 5861 5859 5856 5853 5850
5845 5847 5851 5853 5854 5856 5854 5852 5853 5854 5857 5858 5860 5864 5866 5868 5870 5872 5872 5872 5872 5872 5872 5871 5872 5872 5872 5872 5871 5871 5871 5871 5872 5872 5872 5871 5870 5870 5869 5868 5867 5865 5863 5860 5858 5856 5853 5850 5847
5843 5845 5848 5851 5852 5851 5850 5849 5851 5852 5854 5856 5859 5862 5864 5866 5868 5870 5870 5870 5870 5870 5870 5870 5869 5870 5870 5870 5870 5869 5869 5870 5870 5870 5869 5868 5868 5868 5866 5865 5864 5862 5859 5857 5855 5853 5850 5846 5843
5840 5842 5845 5847 5848 5847 5846 5847 5849 5850 5852 5854 5856 5859 5861 5864 5866 5867 5868 5868 5868 5868 5868 5868 5867 5867 5868 5868 5868 5867 5867 5868 5868 5867 5867 5866 5865 5864 5863 5862 5860 5858 5856 5854 5852 5850 5847 5844 5840
5838 5840 5843 5844 5844 5844 5844 5844 5846 5849 5851 5852 5854 5857 5859 5862 5864 5865 5866 5867 5867 5867 5866 5866 5866 5866 5866 5866 5865 5865 5865 5865 5865 5865 5864 5863 5862 5860 5859 5858 5857 5855 5853 5851 5849 5847 5844 5841 5837
5835 5838 5839 5841 5840 5840 5840 5841 5844 5846 5848 5850 5852 5855 5857 5859 5861 5862 5864 5865 5865 5865 5865 5865 5864 5864 5864 5864 5863 5863 5862 5862 5862 5862 5861 5860 5858 5857 5856 5855 5853 5852 5850 5848 5846 5843 5841 5838 5835
5831 5835 5836 5837 5836 5836 5837 5838 5841 5843 5844 5847 5849 5852 5854 5857 5859 5860 5861 5862 5862 5862 5862 5862 5863 5862 5862 5862 5861 5861 5860 5860 5859 5859 5858 5857 5855 5854 5853 5852 5850 5848 5846 5844 5842 5840 5837 5835 5832
5827 5831 5832 5833 5833 5834 5835 5837 5840 5842 5844 5846 5848 5850 5852 5855 5857 5857 5858 5859 5858 5859 5859 5859 5860 5859 5859 5859 5859 5858 5858 5857 5856 5856 5855 5853 5852 5850 5849 5848 5846 5844 5842 5840 5838 5836 5833 5831 5829
5822 5827 5829 5830 5831 5832 5834 5836 5840 5842 5843 5845 5847 5848 5850 5853 5855 5855 5855 5855 5856 5856 5856 5856 5856 5856 5856 5856 5856 5856 5855 5854 5853 5852 5851 5849 5848 5846 5845 5843 5842 5840 5837 5835 5833 5831 5829 5826 5824
5818 5823 5825 5826 5828 5831 5833 5835 5839 5841 5841 5842 5844 5846 5848 5850 5851 5852 5852 5852 5852 5853 5853 5852 5852 5852 5852 5853 5852 5852 5851 5850 5848 5847 5846 5844 5842 5841 5839 5837 5836 5834 5832 5829 5827 5825 5823 5820 5818
5814 5818 5821 5823 5825 5828 5831 5834 5836 5839 5839 5839 5841 5843 5845 5846 5848 5849 5850 5849 5849 5849 5850 5850 5849 5849 5849 5848 5848 5847 5846 5845 5843 5842 5840 5839 5837 5835 5832 5831 5829 5827 5825 5822 5820 5818 5815 5813 5810
5809 5814 5817 5820 5822 5825 5828 5831 5833 5836 5836 5836 5838 5840 5842 5843 5844 5846 5847 5846 5846 5846 5846 5846 5846 5846 5845 5844 5844 5842 5841 5839 5837 5835 5833 5831 5830 5828 5826 5824 5822 5819 5817 5815 5812 5810 5807 5805 5802
5805 5810 5814 5817 5819 5822 5825 5828 5830 5832 5831 5834 5836 5838 5839 5840 5841 5842 5843 5843 5843 5842 5841 5841 5841 5841 5841 5841 5840 5838 5836 5833 5831 5828 5826 5824 5822 5820 5818 5816 5814 5811 5809 5806 5804 5801 5799 5796 5793
5801 5806 5810 5813 5815 5818 5822 5825 5826 5827 5829 5832 5834 5835 5836 5837 5838 5839 5839 5839 5839 5838 5837 5836 5837 5837 5836 5836 5834 5832 5830 5827 5824 5821 5818 5816 5814 5812 5810 5808 5806 5803 5801 5798 5795 5792 5789 5786 5783
5796 5802 5806 5809 5812 5815 5820 5822 5821 5824 5827 5829 5831 5832 5833 5833 5834 5834 5834 5834 5834 5833 5833 5833 5833 5832 5831 5829 5828 5825 5822 5820 5817 5814 5812 5809 5807 5805 5803 5801 5798 5796 5793 5790 5787 5784 5780 5777 5774
5792 5797 5801 5805 5809 5812 5816 5818 5819 5821 5824 5826 5827 5828 5829 5829 5829 5829 5829 5829 5829 5829 5829 5829 5829 5827 5825 5823 5820 5818 5815 5812 5810 5807 5805 5802 5800 5798 5796 5794 5790 5787 5784 5781 5778 5775 5771 5768 5764
5790 5793 5796 5801 5805 5809 5812 5815 5816 5818 5821 5823 5824 5824 5823 5823 5824 5824 5825 5825 5825 5825 5825 5825 5824 5821 5819 5816 5813 5810 5808 5805 5803 5800 5798 5795 5793 5790 5788 5786 5782 5779 5776 5773 5769 5766 5761 5758 5753
5784 5788 5792 5797 5802 5806 5809 5812 5813 5815 5818 5819 5819 5819 5819 5818 5819 5820 5820 5821 5821 5821 5820 5819 5817 5815 5812 5809 5806 5803 5801 5798 5796 5793 5791 5788 5786 5783 5780 5777 5774 5770 5767 5764 5760 5756 5752 5748 5743
5778 5784 5789 5794 5798 5802 5805 5808 5810 5812 5813 5814 5814 5814 5814 5814 5815 5816 5816 5816 5815 5814 5813 5811 5810 5808 5806 5803 5800 5797 5794 5791 5789 5786 5784 5781 5778 5775 5771 5768 5765 5761 5757 5754 5749 5744 5740 5737 5731
5775 5782 5787 5790 5793 5796 5800 5804 5806 5808 5809 5809 5809 5809 5810 5810 5811 5811 5810 5810 5809 5807 5805 5803 5801 5800 5798 5796 5793 5791 5788 5785 5782 5779 5776 5772 5769 5765 5761 5758 5754 5750 5746 5742 5737 5731 5726 5722 5718
5773 5779 5783 5785 5788 5792 5796 5799 5803 5804 5804 5804 5804 5805 5806 5806 5806 5805 5804 5803 5802 5800 5798 5797 5794 5792 5790 5788 5785 5783 5780 5777 5774 5770 5767 5763 5758 5754 5750 5746 5742 5738 5733 5728 5723 5718 5712 5707 5703
5771 5775 5778 5781 5784 5787 5790 5794 5799 5799 5799 5799 5800 5801 5801 5801 5800 5799 5798 5797 5796 5794 5792 5790 5788 5785 5782 5780 5777 5775 5772 5768 5765 5761 5757 5753 5748 5743 5739 5734 5729 5724 5719 5714 5708 5702 5697 5691 5686
5767 5770 5773 5775 5779 5783 5786 5788 5794 5795 5794 5794 5795 5796 5796 5796 5794 5793 5792 5790 5789 5788 5786 5784 5781 5778 5775 5772 5769 5766 5762 5759 5755 5751 5746 5742 5737 5732 5726 5721 5716 5710 5704 5699 5693 5687 5681 5674 5668
5762 5766 5769 5771 5774 5779 5780 5783 5790 5790 5789 5788 5789 5790 5790 5789 5788 5786 5785 5784 5783 5782 5780 5777 5774 5770 5767 5763 5760 5756 5752 5747 5743 5739 5734 5729 5724 5719 5713 5707 5701 5695 5688 5682 5676 5671 5665 5658 5652
5759 5763 5767 5770 5772 5775 5775 5778 5784 5784 5783 5782 5783 5784 5784 5782 5781 5780 5779 5778 5776 5774 5772 5768 5765 5761 5757 5753 5749 5745 5740 5735 5730 5725 5720 5715 5709 5704 5698 5692 5685 5678 5672 5665 5659 5654 5648 5642 5636
5754 5758 5762 5765 5767 5769 5770 5773 5776 5777 5776 5777 5778 5778 5777 5775 5774 5773 5772 5770 5768 5766 5763 5759 5755 5751 5747 5742 5738 5733 5728 5723 5718 5712 5706 5700 5694 5688 5681 5674 5667 5660 5653 5646 5640 5633 5627 5621 5616
5751 5754 5757 5760 5762 5764 5766 5768 5771 5771 5771 5772 5773 5772 5770 5769 5767 5765 5763 5761 5760 5757 5754 5749 5745 5741 5737 5732 5728 5722 5717 5711 5705 5699 5693 5686 5678 5671 5664 5656 5648 5640 5633 5625 5618 5611 5605 5599 5594
5747 5750 5753 5755 5758 5761 5762 5766 5766 5765 5766 5766 5765 5765 5763 5762 5760 5758 5756 5754 5751 5748 5744 5740 5736 5732 5727 5722 5716 5710 5704 5697 5691 5684 5677 5669 5662 5653 5645 5636 5628 5620 5612 5603 5595 5588 5582 5576 5571
5743 5746 5749 5753 5755 5757 5758 5763 5759 5759 5759 5758 5758 5758 5757 5755 5753 5751 5749 5746 5742 5738 5734 5730 5726 5721 5715 5709 5703 5696 5689 5682 5675 5668 5660 5652 5643 5634 5625 5616 5607 5598 5589 5581 5572 5564 5558 5552 5547